Location: ??
(34.9170°N, 135.5016°E)
Time: 23:01:03
(UTC+00:00)

RS-15 - Pass Details

Date: 26 April 2021
Orbit: 1888 x 2157 km, 64.8° (Epoch: 12 May)

Event Time Altitude Azimuth Distance (km) Brightness Sun altitude
Rises 18:07:16 0° 328° (NNW) 5,569 10.5 -23.5°
Reaches altitude 10° 18:10:37 10° 327° (NNW) 4,593 10.0 -22.9°
Maximum altitude 18:22:39 74° 246° (WSW) 2,213 8.1 -20.9°
Drops below altitude 10° 18:34:53 10° 164° (SSE) 4,658 9.8 -18.8°
Sets 18:38:19 0° 162° (SSE) 5,650 10.3 -18.3°
